St. Paul, MN

11:23 AM CDT on April 19, 2018 (GMT -0500)
Saint Paul Downtown-Holman

Weather History for KSTP - November, 2013

Change the Weather History Date:

Tuesday, November 5, 2013

  Actual Average Record
Temperature  
Mean Temperature 36 °F -  
Max Temperature 45 °F 45 °F 72 °F (2016)
Min Temperature 28 °F 30 °F 19 °F (2003)
Degree Days  
Heating Degree Days 28    
Moisture  
Dew Point 30 °F    
Average Humidity 87    
Maximum Humidity 100    
Minimum Humidity 49    
Precipitation  
Precipitation 0.14 in - - ()
Sea Level Pressure  
Sea Level Pressure 30.16 in    
Wind  
Wind Speed 2 mph (North)    
Max Wind Speed 13 mph    
Max Gust Speed 22 mph    
Visibility 4 miles    
Events Fog , Rain , Snow    
Averages and records for this station are not official NWS values.
T = Trace of Precipitation, MM = Missing Value Source: NWS Daily Summary

Daily Weather History Graph

Daily Weather History Graph

Search for Another Location

Airport or City:

Trip Planner

Search our weather history database for the weather conditions in past years. The results will help you decide how hot, cold, wet, or windy it might be!

Date:

Astronomy

Nov. 05, 2013 Rise Set
Actual Time 6:56 AM CST 4:54 PM CST
Civil Twilight 6:25 AM CST 5:25 PM CST
Nautical Twilight 5:50 AM CST 6:00 PM CST
Astronomical Twilight 5:16 AM CST 6:34 PM CST
Moon 9:15 AM CST (11/5) 6:52 PM CST (11/5)
Length of Visible Light 11h 00m
Length of Day
9h 58m
Waxing Crescent, 7% of the Moon is Illuminated
Nov 5
Waxing Crescent
Nov 9
First Quarter
Nov 17
Full
Nov 25
Last Quarter
Dec 2
New

Hourly Weather History & Observations

Time (CST) Temp. Windchill Dew Point Humidity Pressure Visibility Wind Dir Wind Speed Gust Speed Precip Events Conditions
12:01 AM 33.8 °F - 32.0 °F 93% 30.17 in 0.8 mi Calm Calm - N/A   Mist
12:13 AM 33.8 °F - 32.0 °F 93% 30.17 in 1.2 mi Calm Calm - N/A   Partly Cloudy
12:15 AM 33.8 °F - 32.0 °F 93% 30.17 in 2.0 mi Calm Calm - N/A   Partly Cloudy
12:34 AM 33.8 °F - 32.0 °F 93% 30.17 in 1.0 mi Calm Calm - N/A   Mist
12:38 AM 33.8 °F - 32.0 °F 93% 30.18 in 0.8 mi Calm Calm - N/A   Mist
12:48 AM 32.0 °F - 30.2 °F 93% 30.18 in 0.5 mi Calm Calm - N/A Fog Fog
12:53 AM 32.0 °F - 30.9 °F 96% 30.19 in 0.5 mi Calm Calm - N/A Fog Fog
1:53 AM 30.9 °F - 30.9 °F 100% 30.20 in 0.2 mi Calm Calm - N/A Fog Light Freezing Fog
2:53 AM 30.9 °F - 30.0 °F 96% 30.20 in 0.2 mi Calm Calm - N/A Fog Light Freezing Fog
3:53 AM 30.9 °F - 30.0 °F 96% 30.20 in 0.2 mi Calm Calm - N/A Fog Light Freezing Fog
4:53 AM 30.9 °F - 30.0 °F 96% 30.22 in 0.2 mi Calm Calm - N/A Fog Light Freezing Fog
5:10 AM 30.2 °F - 30.2 °F 100% 30.21 in 1.5 mi Calm Calm - N/A   Overcast
5:13 AM 30.2 °F - 28.4 °F 93% 30.21 in 1.0 mi Calm Calm - N/A   Overcast
5:20 AM 28.4 °F - 28.4 °F 100% 30.21 in 0.2 mi Calm Calm - N/A Fog Light Freezing Fog
5:53 AM 28.0 °F - 28.0 °F 100% 30.25 in 0.2 mi Calm Calm - N/A Fog Light Freezing Fog
6:02 AM 28.4 °F - 28.4 °F 100% 30.23 in 1.2 mi Calm Calm - N/A   Scattered Clouds
6:05 AM 28.4 °F - 28.4 °F 100% 30.24 in 2.0 mi Calm Calm - N/A   Mostly Cloudy
6:10 AM 30.2 °F - 28.4 °F 93% 30.24 in 1.0 mi Calm Calm - N/A   Mostly Cloudy
6:17 AM 30.2 °F - 28.4 °F 93% 30.23 in 0.2 mi Calm Calm - N/A Fog Light Freezing Fog
6:53 AM 30.0 °F - 28.9 °F 96% 30.24 in 0.2 mi Calm Calm - N/A Fog Light Freezing Fog
7:53 AM 30.9 °F - 30.9 °F 100% 30.25 in 0.2 mi Calm Calm - N/A Fog Light Freezing Fog
8:53 AM 32.0 °F - 32.0 °F 100% 30.26 in 0.2 mi Calm Calm - N/A Fog Fog
9:08 AM 32.0 °F - 32.0 °F 100% 30.25 in 3.0 mi Calm Calm - N/A   Partly Cloudy
9:53 AM 35.1 °F - 34.0 °F 96% 30.27 in 7.0 mi Calm Calm - N/A   Clear
10:53 AM 39.9 °F - 34.0 °F 79% 30.27 in 9.0 mi Calm Calm - N/A   Clear
11:53 AM 42.1 °F - 33.1 °F 70% 30.25 in 10.0 mi Calm Calm - N/A   Clear
12:53 PM 45.0 °F 41.8 °F 30.0 °F 56% 30.21 in 10.0 mi North 5.8 mph - N/A   Mostly Cloudy
1:53 PM 45.0 °F 41.2 °F 28.9 °F 53% 30.17 in 10.0 mi NNE 6.9 mph - N/A   Overcast
2:53 PM 45.0 °F 41.8 °F 28.0 °F 52% 30.15 in 10.0 mi North 5.8 mph - N/A   Overcast
3:53 PM 44.1 °F 41.5 °F 26.1 °F 49% 30.14 in 10.0 mi NNE 4.6 mph - N/A   Overcast
4:53 PM 43.0 °F 38.2 °F 27.0 °F 53% 30.12 in 10.0 mi North 8.1 mph - N/A   Overcast
5:53 PM 41.0 °F 33.9 °F 28.0 °F 60% 30.12 in 10.0 mi North 12.7 mph 21.9 mph N/A   Overcast
6:53 PM 37.0 °F 28.9 °F 30.9 °F 79% 30.10 in 10.0 mi NNE 12.7 mph - 0.00 in   Overcast
7:53 PM 36.0 °F 29.0 °F 30.9 °F 82% 30.08 in 10.0 mi North 9.2 mph - 0.00 in Rain Light Rain
8:02 PM 35.6 °F 28.6 °F 30.2 °F 81% 30.05 in 9.0 mi North 9.2 mph - 0.01 in Rain Light Rain
8:26 PM 33.8 °F 27.0 °F 30.2 °F 87% 30.04 in 5.0 mi North 8.1 mph - 0.02 in Snow Light Snow
8:53 PM 34.0 °F 26.6 °F 32.0 °F 92% 30.05 in 5.0 mi North 9.2 mph - 0.04 in Snow Light Snow
9:14 PM 33.8 °F 27.0 °F 30.2 °F 87% 30.03 in 3.0 mi North 8.1 mph - 0.02 in Snow Light Snow
9:53 PM 33.1 °F 26.9 °F 30.9 °F 92% 30.06 in 5.0 mi NNW 6.9 mph - 0.04 in Snow Light Snow
10:14 PM 33.8 °F 26.4 °F 30.2 °F 87% 30.03 in 4.0 mi NNW 9.2 mph - 0.02 in Snow Light Snow
10:35 PM 33.8 °F 25.8 °F 30.2 °F 87% 30.04 in 4.0 mi NNW 10.4 mph - 0.03 in Snow Light Snow
10:53 PM 33.1 °F 24.4 °F 30.9 °F 92% 30.06 in 5.0 mi NNW 11.5 mph - 0.04 in Snow Light Snow
11:12 PM 33.8 °F 25.8 °F 30.2 °F 87% 30.04 in 5.0 mi NNW 10.4 mph - 0.00 in Snow Light Snow
11:37 PM 33.8 °F 25.8 °F 30.2 °F 87% 30.04 in 2.5 mi NNW 10.4 mph - 0.01 in Snow Light Snow
11:49 PM 33.8 °F 25.8 °F 30.2 °F 87% 30.03 in 3.0 mi NNW 10.4 mph - 0.02 in Snow Light Snow
11:53 PM 33.1 °F 24.9 °F 30.9 °F 92% 30.05 in 3.0 mi NNW 10.4 mph - 0.02 in Snow Light Snow